Location: Montbazon
(47.2835°N, 0.6999°E)
Time: 07:03:50
(UTC+00:00)

Cosmos 2322 Rocket - Pass Details

Date: 08 November 2025
Orbit: 830 x 851 km, 71.0° (Epoch: 12 December)

Event Time Altitude Azimuth Distance (km) Brightness Sun altitude
Exits shadow 05:41:28 11° 312° (NW) 2,373 4.0 -12.1°
Maximum altitude 05:42:52 12° 328° (NNW) 2,311 4.1 -11.8°
Drops below altitude 10° 05:45:10 10° 352° (N) 2,482 4.4 -11.5°
Sets 05:49:23 0° 21° (NNE) 3,425 5.5 -10.8°
